Simultaneous Nadir Overpasses (SNOs) Predictions

Prediction of SNOs between METOP-A and NOAA-19 Satellite Orbit:

Table of predicted SNOs for the next 14.0 days since TLE Epoch: 7/4/2014
Index Date (METOP-A) Time (METOP-A) Lat,Lon (METOP-A) SZA (METOP-A ) Date (NOAA-19) Time (NOAA-19) Lat,Lon (NOAA-19) SZA (NOAA-19 ) Distance(km) Time Diff (sec)
1 07/09/2014 02:31:45 74.58, 138.09 52.20 07/09/2014 02:30:36 74.60, 135.83 52.30 66.77 69
2 07/09/2014 03:22:36 -74.14, -55.73 128.21 07/09/2014 03:21:29 -74.14, -55.69 128.20 1.41 67
3 07/09/2014 04:13:16 74.13, 111.57 51.79 07/09/2014 04:12:30 74.14, 111.55 51.81 1.39 46
4 07/09/2014 05:03:58 -74.12, -81.11 128.22 07/09/2014 05:03:32 -74.11, -81.13 128.22 1.72 26
5 07/09/2014 05:54:38 74.11, 86.18 51.78 07/09/2014 05:54:33 74.11, 86.11 51.79 2.27 5
6
